Powrót do katalogu

ARIANE 5 R/B

AktywnyHEO
NORAD 39510·ROCKET BODY·🇫🇷 France

Wystrzelony Feb 6, 2014 z Guiana Space Centre

Loading…

Następne Przeloty (najbliższe 24 godziny)

TLE

ŚwieżeSource: Space-Track

Epoka: Sep 14, 2026, 19:51 UTC

1 39510U 14006C   26257.82731522  .00001538  00000-0  63494-3 0  9997
2 39510   6.2881  72.3889 7102175 182.7455 168.9022  2.49736895109053

Śledź ARIANE 5 R/B w czasie rzeczywistym z AllMySat

Download on the App Store